{"data":{"norad_id":60361,"intl_designator":"2024-138G","name":"STARLINK-32227","alt_names":[],"object_type":"PAYLOAD","status":"ACTIVE","operator":null,"country":"US","launch_date":"2024-08-04","launch_site_code":"AFWTR","launch_vehicle":null,"mission":null,"orbit_class":"UNKNOWN","rcs_meters":null,"size_class":null,"mass_kg":null,"dimensions":null,"purposes":["comms"],"wikipedia_slug":null,"has_3d_model":false,"image_url":null,"decayed_at":null,"tle_current":{"epoch":"2026-09-21T20:34:11.986752Z","epoch_age_seconds":68407,"freshness":"FRESH","line1":"1 60361U 24138G   26264.85708318 -.00000203  00000+0  51317-5 0  9991","line2":"2 60361  53.1603 117.5733 0001345 100.8548 259.2606 15.34386508120682","mean_motion":15.34386508,"eccentricity":0.0001345,"inclination_deg":53.1603,"raan_deg":117.5733,"arg_perigee_deg":100.8548,"mean_anomaly_deg":259.2606,"bstar":5.1317e-6,"rev_number":12068,"period_min":93.8485832932,"perigee_km":461.82324316232,"apogee_km":463.6634399742,"semimajor_km":6840.8803415683,"source":"CELESTRAK","updated_at":"2026-09-22T09:00:49.224791Z"}}}